Location: Wildcat Hills Observatory
(41.6350°N, 103.6812°W)
Time: 01:59:32
(UTC-06:00)

NOSS 2-2 (D) - Pass Details

Date: 23 June 2018
Orbit: 515 x 1694 km, 63.3° (Epoch: 18 September)

Event Time Altitude Azimuth Distance (km) Brightness Sun altitude
Exits shadow 23:30:20 22° 244° (WSW) 1,175 4.9 -21.9°
Maximum altitude 23:32:31 49° 311° (NW) 717 4.2 -22.1°
Drops below altitude 10° 23:36:44 10° 27° (NNE) 2,000 6.7 -22.3°
Sets 23:39:19 0° 32° (NNE) 3,054 7.7 -22.5°
